| time (UTC) | temp F | wind direction | speed MPH | gust MPH | rain 1hr in | rain 24hr in | rain mn in | humidity % | barometer mb |
| 20260505124818 | 60 | 216 | 2.0 | 6.0 | 0.00 | 0.00 | 0.00 | 89 | 1008.3 |
| 20260505123843 | 59 | 184 | 3.0 | 6.0 | 0.00 | 0.00 | 0.00 | 89 | 1008.1 |
| 20260505120523 | 58 | 218 | 1.0 | 7.0 | 0.00 | 0.00 | 0.00 | 91 | 1007.8 |
| 20260505114326 | 58 | 233 | 4.0 | 10.0 | 0.00 | 0.00 | 0.00 | 92 | 1007.6 |
| 20260505112206 | 57 | 226 | 4.0 | 12.0 | 0.00 | 0.00 | 0.00 | 93 | 1007.8 |
| 20260505111135 | 57 | 150 | 4.0 | 10.0 | 0.00 | 0.00 | 0.00 | 93 | 1007.8 |
| 20260505110126 | 57 | 180 | 4.0 | 10.0 | 0.00 | 0.00 | 0.00 | 93 | 1008.6 |
| 20260505102049 | 57 | 198 | 4.0 | 8.0 | 0.00 | 0.00 | 0.00 | 93 | 1008.0 |
| 20260505101019 | 58 | 347 | 3.0 | 9.0 | 0.00 | 0.00 | 0.00 | 93 | 1007.4 |
| 20260505094809 | 58 | 121 | 3.0 | 7.0 | 0.00 | 0.00 | 0.00 | 93 | 1007.7 |
| 20260505093832 | 58 | 128 | 3.0 | 6.0 | 0.00 | 0.00 | 0.00 | 93 | 1008.2 |
| 20260505092808 | 58 | 148 | 0.0 | 4.0 | 0.00 | 0.00 | 0.00 | 93 | 1008.8 |
| 20260505091744 | 58 | 209 | 0.0 | 0.0 | 0.00 | 0.00 | 0.00 | 93 | 1009.2 |
| 20260505090715 | 58 | 287 | 0.0 | 0.0 | 0.00 | 0.00 | 0.00 | 92 | 1009.5 |
| 20260505085735 | 58 | 284 | 0.0 | 2.0 | 0.00 | 0.00 | 0.00 | 92 | 1010.0 |
| 20260505084707 | 58 | 290 | 1.0 | 4.0 | 0.00 | 0.00 | 0.00 | 92 | 1010.1 |
| 20260505082517 | 58 | 47 | 3.0 | 7.0 | 0.00 | 0.00 | 0.00 | 91 | 1009.9 |
| 20260505080326 | 59 | 338 | 3.0 | 7.0 | 0.00 | 0.00 | 0.00 | 89 | 1009.1 |
| 20260505075330 | 60 | 304 | 4.0 | 11.0 | 0.00 | 0.00 | 0.00 | 87 | 1008.6 |
| 20260505074339 | 62 | 316 | 5.0 | 16.0 | 0.00 | 0.00 | 0.00 | 78 | 1008.0 |
| 20260505073319 | 65 | 356 | 3.0 | 16.0 | 0.00 | 0.00 | 0.00 | 67 | 1007.3 |
| 20260505072308 | 66 | 352 | 3.0 | 8.0 | 0.00 | 0.00 | 0.00 | 63 | 1005.7 |
| 20260505070158 | 67 | 39 | 2.0 | 12.0 | 0.00 | 0.00 | 0.00 | 60 | 1006.3 |
| 20260505065135 | 69 | 346 | 4.0 | 12.0 | 0.00 | 0.00 | 0.00 | 56 | 1006.5 |
| 20260505064110 | 70 | 268 | 2.0 | 11.0 | 0.00 | 0.00 | 0.00 | 52 | 1006.1 |
| 20260505063105 | 69 | 252 | 4.0 | 11.0 | 0.00 | 0.00 | 0.00 | 51 | 1005.6 |
| 20260505062037 | 69 | 221 | 4.0 | 12.0 | 0.00 | 0.00 | 0.00 | 52 | 1005.5 |
| 20260505061101 | 69 | 241 | 6.0 | 13.0 | 0.00 | 0.00 | 0.00 | 52 | 1005.4 |
| 20260505054956 | 69 | 215 | 6.0 | 13.0 | 0.00 | 0.00 | 0.00 | 52 | 1005.5 |
| 20260505053938 | 69 | 257 | 6.0 | 13.0 | 0.00 | 0.00 | 0.00 | 53 | 1005.4 |
| 20260505052911 | 68 | 224 | 5.0 | 13.0 | 0.00 | 0.00 | 0.00 | 53 | 1005.6 |
| 20260505041457 | 68 | 238 | 4.0 | 10.0 | 0.00 | 0.00 | 0.00 | 54 | 1005.1 |
| 20260505040515 | 69 | 252 | 5.0 | 10.0 | 0.00 | 0.00 | 0.00 | 53 | 1005.0 |
| 20260505035511 | 69 | 291 | 5.0 | 11.0 | 0.00 | 0.00 | 0.00 | 53 | 1005.1 |
| 20260505032222 | 69 | 304 | 4.0 | 10.0 | 0.00 | 0.00 | 0.00 | 54 | 1005.7 |
| 20260505031151 | 69 | 218 | 3.0 | 8.0 | 0.00 | 0.00 | 0.00 | 55 | 1005.9 |
| 20260505030200 | 69 | 219 | 4.0 | 8.0 | 0.00 | 0.00 | 0.00 | 54 | 1006.0 |
| 20260505025223 | 69 | 224 | 3.0 | 8.0 | 0.00 | 0.00 | 0.00 | 54 | 1005.9 |
| 20260505024201 | 69 | 193 | 3.0 | 8.0 | 0.00 | 0.00 | 0.00 | 54 | 1005.8 |
| 20260505022017 | 70 | 134 | 2.0 | 6.0 | 0.00 | 0.00 | 0.00 | 52 | 1005.6 |
| 20260505021011 | 70 | 248 | 3.0 | 7.0 | 0.00 | 0.00 | 0.00 | 52 | 1005.4 |
| 20260505014854 | 71 | 225 | 4.0 | 9.0 | 0.00 | 0.00 | 0.00 | 50 | 1004.9 |
| 20260505013849 | 72 | 173 | 4.0 | 10.0 | 0.00 | 0.00 | 0.00 | 50 | 1004.8 |
| 20260505012819 | 72 | 202 | 4.0 | 12.0 | 0.00 | 0.00 | 0.00 | 49 | 1004.7 |
| 20260505011748 | 73 | 227 | 5.0 | 12.0 | 0.00 | 0.00 | 0.00 | 48 | 1004.3 |
| 20260505005640 | 73 | 149 | 4.0 | 14.0 | 0.00 | 0.00 | 0.00 | 48 | 1004.3 |
| 20260505004613 | 74 | 209 | 6.0 | 13.0 | 0.00 | 0.00 | 0.00 | 47 | 1004.4 |
| 20260505003553 | 74 | 236 | 6.0 | 13.0 | 0.00 | 0.00 | 0.00 | 46 | 1004.4 |
| 20260505002519 | 75 | 231 | 8.0 | 13.0 | 0.00 | 0.00 | 0.00 | 45 | 1004.3 |
| 20260505001515 | 75 | 220 | 7.0 | 15.0 | 0.00 | 0.00 | 0.00 | 45 | 1004.5 |
| 20260505000446 | 75 | 229 | 8.0 | 16.0 | 0.00 | 0.00 | 0.00 | 44 | 1004.5 |
| 20260504235501 | 76 | 238 | 9.0 | 18.0 | 0.00 | 0.00 | 0.00 | 43 | 1004.5 |
| 20260504234431 | 76 | 139 | 7.0 | 18.0 | 0.00 | 0.00 | 0.00 | 43 | 1004.6 |
| 20260504233402 | 76 | 201 | 8.0 | 15.0 | 0.00 | 0.00 | 0.00 | 44 | 1004.7 |
| 20260504232329 | 76 | 227 | 8.0 | 16.0 | 0.00 | 0.00 | 0.00 | 43 | 1004.9 |
| 20260504231312 | 77 | 226 | 9.0 | 18.0 | 0.00 | 0.00 | 0.00 | 42 | 1005.0 |
| 20260504230316 | 76 | 219 | 10.0 | 19.0 | 0.00 | 0.00 | 0.00 | 42 | 1005.4 |
| 20260504225338 | 77 | 242 | 11.0 | 22.0 | 0.00 | 0.00 | 0.00 | 41 | 1005.6 |
| 20260504223129 | 77 | 226 | 10.0 | 20.0 | 0.00 | 0.00 | 0.00 | 41 | 1005.7 |
| 20260504222136 | 77 | 179 | 9.0 | 20.0 | 0.00 | 0.00 | 0.00 | 40 | 1005.8 |
| 20260504221114 | 77 | 229 | 11.0 | 22.0 | 0.00 | 0.00 | 0.00 | 40 | 1005.9 |
| 20260504220120 | 77 | 233 | 8.0 | 22.0 | 0.00 | 0.00 | 0.00 | 39 | 1005.8 |
| 20260504215142 | 77 | 243 | 6.0 | 15.0 | 0.00 | 0.00 | 0.00 | 39 | 1005.9 |
| 20260504214153 | 77 | 226 | 8.0 | 29.0 | 0.00 | 0.00 | 0.00 | 38 | 1006.0 |
| 20260504213148 | 77 | 226 | 11.0 | 29.0 | 0.00 | 0.00 | 0.00 | 37 | 1006.2 |
| 20260504212149 | 78 | 217 | 12.0 | 27.0 | 0.00 | 0.00 | 0.00 | 38 | 1006.2 |
| 20260504211151 | 78 | 240 | 10.0 | 24.0 | 0.00 | 0.00 | 0.00 | 37 | 1006.0 |
| 20260504210203 | 79 | 234 | 11.0 | 24.0 | 0.00 | 0.00 | 0.00 | 38 | 1006.0 |
| 20260504205133 | 78 | 182 | 8.0 | 19.0 | 0.00 | 0.00 | 0.00 | 39 | 1006.2 |
| 20260504204143 | 79 | 181 | 9.0 | 19.0 | 0.00 | 0.00 | 0.00 | 40 | 1006.1 |
| 20260504203148 | 78 | 207 | 3.0 | 11.0 | 0.00 | 0.00 | 0.00 | 44 | 1006.3 |
| 20260504202212 | 78 | 243 | 3.0 | 9.0 | 0.00 | 0.00 | 0.00 | 45 | 1006.6 |
| 20260504201140 | 78 | 151 | 2.0 | 8.0 | 0.00 | 0.00 | 0.00 | 44 | 1006.7 |
| 20260504195055 | 79 | 349 | 3.0 | 9.0 | 0.00 | 0.00 | 0.00 | 42 | 1007.1 |
| 20260504192909 | 77 | 195 | 1.0 | 9.0 | 0.00 | 0.00 | 0.00 | 46 | 1007.4 |
| 20260504191851 | 76 | 247 | 3.0 | 8.0 | 0.00 | 0.00 | 0.00 | 49 | 1007.5 |
| 20260504190817 | 74 | 235 | 3.0 | 8.0 | 0.00 | 0.00 | 0.00 | 51 | 1007.7 |
| 20260504185826 | 72 | 238 | 2.0 | 6.0 | 0.00 | 0.00 | 0.00 | 55 | 1007.9 |
| 20260504184818 | 71 | 244 | 3.0 | 11.0 | 0.00 | 0.00 | 0.00 | 56 | 1008.1 |
| 20260504183811 | 71 | 257 | 4.0 | 12.0 | 0.00 | 0.00 | 0.00 | 56 | 1008.4 |
| 20260504180518 | 68 | 262 | 2.0 | 4.0 | 0.00 | 0.00 | 0.00 | 64 | 1008.6 |
| 20260504175540 | 68 | 229 | 0.0 | 3.0 | 0.00 | 0.00 | 0.00 | 63 | 1008.5 |
| 20260504174525 | 68 | 297 | 1.0 | 9.0 | 0.00 | 0.00 | 0.00 | 64 | 1008.5 |
| 20260504173529 | 69 | 234 | 4.0 | 11.0 | 0.00 | 0.00 | 0.00 | 60 | 1008.6 |
| 20260504172455 | 69 | 235 | 5.0 | 16.0 | 0.00 | 0.00 | 0.00 | 59 | 1008.1 |
| 20260504171512 | 69 | 271 | 6.0 | 16.0 | 0.00 | 0.00 | 0.00 | 58 | 1008.3 |
| 20260504170453 | 69 | 248 | 6.0 | 14.0 | 0.00 | 0.00 | 0.00 | 57 | 1008.4 |
| 20260504160328 | 68 | 169 | 9.0 | 19.0 | 0.00 | 0.00 | 0.00 | 58 | 1008.3 |
| 20260504150312 | 66 | 248 | 1.0 | 5.0 | 0.00 | 0.00 | 0.00 | 65 | 1008.5 |
| 20260504141115 | 64 | 250 | 5.0 | 11.0 | 0.00 | 0.00 | 0.00 | 66 | 1008.8 |